Погода в Жоинвили

Бразилия     26°18′46″S   48°50′50″W
темп.,
°C
ветер,
м/с
пор.,
м/с
влажн.,
%
обл.,
%
осадки,
мм/ч
давл.,
гПа
погр.,
м
26 февраля, пт
пт2600:00+20юз119956 1.2 101431
03:00+19юз1510040 2.4 1014165
06:00+19юз149933 0.3 1013152
09:00+21юз269556 0.5 1016365
12:00+24ю258488 1.3 1015794
15:00+24ююв279574 5.3 1014846
18:00+23ю17968 3.3 1014634
21:00+20зюз119913 5.7 101657
27 февраля, сб
сб2700:00+20юз1510071 0.8 1016177
03:00+20юз269975 2.0 1015253
06:00+20юз159971 1.1 1015211
09:00+23юз259470 2.2 1017433
12:00+24ю269778 5.6 1016718
15:00+24ююв279770 15.3 1015928
18:00+22ю21098100 8.9 1015635
21:00+21ююз1899100 16.9 1016343
28 февраля, вс
вс2800:00+21юз1410092 6.4 1016197
03:00+21зюз1310093 10.7 1014142
06:00+20зюз119978 0.8 101537
09:00+24юз139576 2.3 1015275
12:00+26ююв119430 8.0 1015431
15:00+24в159747 17.0 1013439
18:00+22св1698100 5.8 1012297
21:00+21всв16100100 12.0 1014307
1 марта, пн
пн100:00+21св01100100 7.1 101481
03:00+21зсз0199100 8.8 101227
06:00+20з119985 0.3 101325
09:00+25юз118668 0.3 1013359
12:00+29в226841 1.8 1012972
15:00+27всв238636 6.9 1010851
18:00+24св139399 1.2 1010148
21:00+22с1110099 11.5 101264
2 марта, вт
вт200:00+22ю11100100 16.4 101342
03:00+22всв13100100 32.4 1012160
06:00+22с13100100 3.1 1012172
09:00+26с138681 3.1 1013469
12:00+31всв116073 1.9 10121110
15:00+30всв336378 2.4 1010879
18:00+23св1499100 1.8 1010167
21:00+22ссв1699100 4.5 1013247